This is the latest recevied weather packets stored in our database for station/object DL5TW-13. If no packets are shown the sender has not sent any weather packets the latest 1 day(s).
| Time | Temp. | Humidity | Pressure | Rain* | Wind** | Luminosity | Snow |
|---|---|---|---|---|---|---|---|
| 1778030743 | 11.11° C | 91% | 1000.7 hPa | 0 mm | - | - | - |
| 1778030142 | 11.11° C | 91% | 1000.7 hPa | 0 mm | - | - | - |
| 1778029842 | 11.11° C | 91% | 1000.8 hPa | 0 mm | - | - | - |
| 1778029541 | 11.11° C | 92% | 1000.8 hPa | 0 mm | - | - | - |
| 1778028941 | 11.11° C | 92% | 1000.6 hPa | 0 mm | - | - | - |
| 1778028641 | 11.11° C | 92% | 1000.6 hPa | 0 mm | - | - | - |
| 1778028040 | 11.11° C | 91% | 1000.9 hPa | 0 mm | - | - | - |
| 1778027740 | 11.11° C | 91% | 1000.9 hPa | 0 mm | - | - | - |
| 1778027139 | 11.11° C | 91% | 1000.8 hPa | 0 mm | - | - | - |
| 1778026839 | 11.11° C | 91% | 1000.8 hPa | 0 mm | - | - | - |
| 1778026539 | 11.11° C | 92% | 1000.8 hPa | 0 mm | - | - | - |
| 1778025638 | 11.11° C | 91% | 1000.9 hPa | 0.51 mm | - | - | - |
| 1778024437 | 11.67° C | 91% | 1001.1 hPa | 0.51 mm | - | - | - |
| 1778023536 | 11.67° C | 91% | 1001.2 hPa | 1.02 mm | - | - | - |
| 1778022335 | 11.67° C | 91% | 1001.2 hPa | 0.51 mm | - | - | - |
| 1778021434 | 11.67° C | 91% | 1001.3 hPa | 1.02 mm | - | - | - |
| 1778020233 | 12.22° C | 91% | 1001.1 hPa | 1.52 mm | - | - | - |
| 1778018431 | 12.22° C | 90% | 1001.6 hPa | 2.54 mm | - | - | - |
| 1778018131 | 12.22° C | 90% | 1001.6 hPa | 3.05 mm | - | - | - |
| 1778017230 | 12.22° C | 90% | 1001.7 hPa | 3.05 mm | - | - | - |
| 1778016029 | 12.22° C | 90% | 1001.8 hPa | 3.56 mm | - | - | - |
| 1778014227 | 12.22° C | 90% | 1001.9 hPa | 14.48 mm | - | - | - |
| 1778013927 | 12.22° C | 89% | 1001.8 hPa | 17.02 mm | - | - | - |
| 1778013026 | 12.78° C | 89% | 1001.5 hPa | 19.05 mm | - | - | - |
| 1778011825 | 12.78° C | 88% | 1001.5 hPa | 19.05 mm | - | - | - |
* Rain latest hour (hover to see other rain measurements)
** Current wind speed in m/s (hover to see current wind gust speed)